World > North America > United States > North Carolina

Parmele, North Carolina Regional Weather

Lat: 35.82N, Lon: 77.31W
Wx Zone: NCZ029
Warning FLW WEATHER ALERT - EXCESSIVE HEAT WARNING (More Info. Click Here) Warning
Feedback

Parmele, NC Regional Weather

Expires:201907211900;;415670
ASUS42 KMHX 211825
RWRMHX
WEATHER ROUNDUP FOR EASTERN NORTH CAROLINA
NATIONAL WEATHER SERVICE NEWPORT/MOREHEAD CITY NC
200 PM EDT SUN JUL 21 2019

NOTE: "FAIR" INDICATES FEW OR NO CLOUDS BELOW 12,000 FEET
WITH NO SIGNIFICANT WEATHER AND/OR OBSTRUCTIONS TO VISIBILITY


NCZ011>013-027>030-043-044-078>080-089-090>093-098-211900-
COASTAL PLAIN
  
CITY           SKY/WX    TMP DP  RH WIND       PRES   REMARKS
AHOSKIE        NOT AVBL                                               
CLINTON        FAIR      95  73  48 SW10      29.99F HX 105           
ELIZABETHTOWN  PTSUNNY   95  71  45 W12       30.00F HX 101           
GOLDSBORO      FAIR      96  72  46 SW17      29.96F HX 104           
GREENVILLE     FAIR      95  72  46 W12G17    29.98F HX 103           
HAVELOCK       FAIR      96  71  44 W12G17    29.99F HX 103           
KENANSVILLE    FAIR      97  70  41 W10G18    29.98F HX 103           
KINSTON        SUNNY     95  70  43 SW9G17    29.98F HX 101           
NEW BERN       FAIR      95  76  53 SW9       29.98F HX 108           
RICHLANDS      FAIR      98  72  42 SW14G21   29.99F HX 107           
ROCKY MOUNT    FAIR      98  71  41 W13G22    29.96F HX 106           
WASHINGTON     FAIR      94  72  48 W10       29.97F HX 103           
WHITEVILLE     FAIR      94  71  46 SW8       30.00F HX 101           

$$


SKY/WX - Weather  TMP - Temperature  DP - Dew Point  RH - Relative Humidity
WIND - Wind Direction/Speed PRES - Barometric Pressure VSB - Visibility
WCI - Wind Chill Index E13G22 Wind - East Wind 13 mph/Gusts of 22 mph